North Wilkesboro, NC

1:39 AM EDT on September 21, 2019 (GMT -0400)
Wilkes County

Weather History for KUKF - May, 2019

Change the Weather History Date:

Wednesday, May 22, 2019

  Actual Average Record
Temperature  
Mean Temperature 64 °F -  
Max Temperature 69 °F 79 °F 91 °F (1975)
Min Temperature 60 °F 52 °F 35 °F (2002)
Growing Degree Days 14 (Base 50)    
Moisture  
Dew Point 60 °F    
Average Humidity 84    
Maximum Humidity 100    
Minimum Humidity 73    
Precipitation  
Precipitation 0.00 in - - ()
Sea Level Pressure  
Sea Level Pressure 30.27 in    
Wind  
Wind Speed 4 mph (ENE)    
Max Wind Speed 7 mph    
Max Gust Speed -    
Visibility 10 miles    
Events      
Averages and records for this station are not official NWS values.
T = Trace of Precipitation, MM = Missing Value Source: NWS Daily Summary

Daily Weather History Graph

Daily Weather History Graph

Search for Another Location

Airport or City:

Astronomy

May. 22, 2019 Rise Set
Actual Time 6:13 AM EDT 8:29 PM EDT
Civil Twilight 5:44 AM EDT 8:58 PM EDT
Nautical Twilight 5:08 AM EDT 9:34 PM EDT
Astronomical Twilight 4:29 AM EDT 10:13 PM EDT
Moon No Moon Rise 9:21 AM EDT (5/22)
Length of Visible Light 15h 14m
Length of Day
14h 15m
Waning Gibbous, 85% of the Moon is Illuminated
May 22
Waning Gibbous
May 26
Last Quarter
Jun 3
New
Jun 10
First Quarter
Jun 17
Full

Hourly Weather History & Observations

Time (EDT) Temp. Dew Point Humidity Pressure Visibility Wind Dir Wind Speed Gust Speed Precip Events Conditions
12:00 AM 68.0 °F 60.8 °F 78% 30.15 in 10.0 mi ENE 3.5 mph - N/A   Overcast
12:20 AM 68.0 °F 59.0 °F 73% 30.15 in 10.0 mi ENE 4.6 mph - N/A   Mostly Cloudy
12:40 AM 68.0 °F 59.0 °F 73% 30.16 in 10.0 mi NE 4.6 mph - N/A   Scattered Clouds
1:00 AM 66.2 °F 59.0 °F 78% 30.16 in 10.0 mi NE 4.6 mph - N/A   Clear
1:20 AM 66.2 °F 57.2 °F 73% 30.17 in 10.0 mi NE 4.6 mph - N/A   Clear
1:40 AM 66.2 °F 57.2 °F 73% 30.17 in 10.0 mi NE 6.9 mph - N/A   Scattered Clouds
2:00 AM 64.4 °F 57.2 °F 77% 30.18 in 10.0 mi ENE 5.8 mph - N/A   Scattered Clouds
2:20 AM 64.4 °F 57.2 °F 77% 30.19 in 10.0 mi NE 6.9 mph - N/A   Clear
2:40 AM 64.4 °F 59.0 °F 83% 30.19 in 10.0 mi ENE 4.6 mph - N/A   Clear
3:00 AM 62.6 °F 59.0 °F 88% 30.20 in 10.0 mi NE 5.8 mph - N/A   Clear
3:20 AM 62.6 °F 59.0 °F 88% 30.19 in 10.0 mi NE 5.8 mph - N/A   Clear
3:40 AM 62.6 °F 59.0 °F 88% 30.20 in 10.0 mi NE 4.6 mph - N/A   Clear
4:00 AM 62.6 °F 59.0 °F 88% 30.20 in 10.0 mi NE 5.8 mph - N/A   Clear
4:20 AM 62.6 °F 59.0 °F 88% 30.21 in 10.0 mi NE 5.8 mph - N/A   Clear
4:40 AM 60.8 °F 59.0 °F 94% 30.21 in 10.0 mi NE 5.8 mph - N/A   Scattered Clouds
5:00 AM 62.6 °F 59.0 °F 88% 30.22 in 10.0 mi NE 5.8 mph - N/A   Overcast
5:20 AM 62.6 °F 59.0 °F 88% 30.23 in 10.0 mi NE 5.8 mph - N/A   Overcast
5:40 AM 62.6 °F 59.0 °F 88% 30.24 in 10.0 mi NE 4.6 mph - N/A   Overcast
6:00 AM 62.6 °F 57.2 °F 82% 30.24 in 10.0 mi NE 5.8 mph - N/A   Overcast
6:20 AM 62.6 °F 57.2 °F 82% 30.25 in 10.0 mi ENE 4.6 mph - N/A   Overcast
6:40 AM 62.6 °F 57.2 °F 82% 30.26 in 10.0 mi NE 6.9 mph - N/A   Overcast
7:00 AM 62.6 °F 57.2 °F 82% 30.27 in 10.0 mi ENE 3.5 mph - N/A   Overcast
7:20 AM 62.6 °F 59.0 °F 88% 30.28 in 10.0 mi ENE 6.9 mph - N/A   Overcast
7:40 AM 62.6 °F 59.0 °F 88% 30.28 in 10.0 mi NE 5.8 mph - N/A   Overcast
8:00 AM 60.8 °F 59.0 °F 94% 30.28 in 10.0 mi NE 5.8 mph - N/A   Overcast
8:20 AM 62.6 °F 59.0 °F 88% 30.27 in 10.0 mi ENE 4.6 mph - N/A   Overcast
8:40 AM 62.6 °F 59.0 °F 88% 30.27 in 10.0 mi East 5.8 mph - N/A   Overcast
9:00 AM 62.6 °F 59.0 °F 88% 30.28 in 10.0 mi ENE 3.5 mph - N/A   Overcast
9:20 AM 62.6 °F 59.0 °F 88% 30.28 in 10.0 mi ENE 4.6 mph - N/A   Overcast
9:40 AM 60.8 °F 59.0 °F 94% 30.29 in 10.0 mi ENE 5.8 mph - N/A   Overcast
10:00 AM 62.6 °F 59.0 °F 88% 30.29 in 10.0 mi NE 3.5 mph - N/A   Overcast
10:20 AM 62.6 °F 59.0 °F 88% 30.29 in 10.0 mi ENE 4.6 mph - N/A   Overcast
10:40 AM 62.6 °F 59.0 °F 88% 30.29 in 10.0 mi East 5.8 mph - N/A   Overcast
11:00 AM 62.6 °F 59.0 °F 88% 30.29 in 10.0 mi ENE 5.8 mph - N/A   Overcast
11:20 AM 62.6 °F 59.0 °F 88% 30.30 in 10.0 mi NE 6.9 mph - N/A   Overcast
11:40 AM 64.4 °F 59.0 °F 83% 30.30 in 10.0 mi East 6.9 mph - N/A   Overcast
12:00 PM 64.4 °F 59.0 °F 83% 30.30 in 10.0 mi North - - N/A   Overcast
12:20 PM 64.4 °F 59.0 °F 83% 30.30 in 10.0 mi ENE 3.5 mph - N/A   Overcast
12:40 PM 64.4 °F 59.0 °F 83% 30.31 in 10.0 mi East 4.6 mph - N/A   Overcast
1:20 PM 64.4 °F 59.0 °F 83% 30.32 in 10.0 mi ESE 5.8 mph - N/A   Overcast
1:40 PM 64.4 °F 59.0 °F 83% 30.32 in 10.0 mi Calm Calm - N/A   Overcast
2:00 PM 66.2 °F 59.0 °F 78% 30.32 in 10.0 mi ESE 4.6 mph - N/A   Overcast
2:20 PM 68.0 °F 60.8 °F 78% 30.31 in 10.0 mi SE 3.5 mph - N/A   Overcast
2:40 PM 68.0 °F 60.8 °F 78% 30.30 in 10.0 mi NE 4.6 mph - N/A   Overcast
3:20 PM 68.0 °F 60.8 °F 78% 30.30 in 10.0 mi Calm Calm - N/A   Overcast
3:40 PM 68.0 °F 60.8 °F 78% 30.30 in 10.0 mi East 5.8 mph - N/A   Overcast
4:00 PM 68.0 °F 60.8 °F 78% 30.29 in 10.0 mi East 3.5 mph - N/A   Overcast
4:20 PM 69.8 °F 60.8 °F 73% 30.29 in 10.0 mi ESE 3.5 mph - N/A   Overcast
4:40 PM 69.8 °F 62.6 °F 78% 30.29 in 10.0 mi ESE 4.6 mph - N/A   Overcast
5:00 PM 69.8 °F 60.8 °F 73% 30.29 in 10.0 mi ESE 4.6 mph - N/A   Overcast
5:20 PM 69.8 °F 60.8 °F 73% 30.28 in 10.0 mi SSE 3.5 mph - N/A   Overcast
5:40 PM 69.8 °F 60.8 °F 73% 30.28 in 10.0 mi ENE 3.5 mph - N/A   Overcast
6:00 PM 69.8 °F 62.6 °F 78% 30.28 in 10.0 mi Calm Calm - N/A   Overcast
6:20 PM 69.8 °F 62.6 °F 78% 30.28 in 10.0 mi ENE 3.5 mph - N/A   Overcast
6:40 PM 69.8 °F 62.6 °F 78% 30.27 in 10.0 mi Calm Calm - N/A   Overcast
7:00 PM 69.8 °F 62.6 °F 78% 30.28 in 10.0 mi Calm Calm - N/A   Overcast
7:20 PM 69.8 °F 62.6 °F 78% 30.28 in 10.0 mi Calm Calm - N/A   Overcast
7:40 PM 68.0 °F 62.6 °F 83% 30.29 in 10.0 mi Calm Calm - N/A   Overcast
8:00 PM 68.0 °F 64.4 °F 88% 30.29 in 10.0 mi Calm Calm - N/A   Overcast
8:20 PM 68.0 °F 64.4 °F 88% 30.29 in 10.0 mi North 3.5 mph - N/A   Overcast
8:40 PM 68.0 °F 64.4 °F 88% 30.30 in 10.0 mi North 4.6 mph - N/A   Overcast
9:00 PM 68.0 °F 64.4 °F 88% 30.30 in 10.0 mi Calm Calm - N/A   Overcast
9:20 PM 68.0 °F 64.4 °F 88% 30.31 in 10.0 mi North 4.6 mph - N/A   Overcast
9:40 PM 68.0 °F 64.4 °F 88% 30.31 in 10.0 mi NNE 3.5 mph - N/A   Overcast
10:00 PM 68.0 °F 64.4 °F 88% 30.31 in 10.0 mi Calm Calm - N/A   Overcast
10:20 PM 68.0 °F 64.4 °F 88% 30.32 in 10.0 mi Calm Calm - N/A   Overcast
10:40 PM 66.2 °F 64.4 °F 94% 30.32 in 10.0 mi North 3.5 mph - N/A   Overcast
11:00 PM 66.2 °F 66.2 °F 100% 30.33 in 10.0 mi Calm Calm - N/A   Overcast
11:20 PM 66.2 °F 66.2 °F 100% 30.33 in 10.0 mi Calm Calm - N/A   Overcast
11:40 PM 66.2 °F 64.4 °F 94% 30.33 in 10.0 mi NNW 3.5 mph - N/A   Overcast